Terminal Aerodrome Forecast
Issued by NWS

Home | Current Version | Previous Version | Text Only | Print | Product List | Glossary On
Versions: 1 2 3 4 5 6 7 8 9 10 11 12 13 14 15 16 17 18 19 20 21 22 23 24 25 26 27 28
000
FTUS41 KOKX 251531 AAB
TAFHPN
TAF AMD
KHPN 251531Z 2516/2612 20006KT P6SM SCT040
     FM251800 23008KT P6SM SCT040
     FM252000 26008KT P6SM BKN070 BKN250
      TEMPO 2520/2524 3SM TSRA BKN040CB
     FM260000 30005KT 5SM -SHRA BR BKN040 BKN100
     FM260200 24005KT P6SM SCT100 BKN250
     FM260800 VRB04KT 5SM BR SCT250
      AMD NOT SKED=

USA.gov is the U.S. government's official web portal to all federal, state and local government web resources and services.